Regional Weather Roundup
Issued by NWS

Home | Current Version | Previous Version | Text Only | Print | Product List | Glossary Off
Versions: 1 2 3 4 5 6 7 8 9 10 11 12 13 14 15 16 17 18 19 20 21 22 23 24 25 26 27 28 29 30 31 32 33 34 35 36 37 38 39 40 41 42 43 44 45 46 47 48 49 50

000
ASUS43 KDMX 160506
RWRIA

WEATHER ROUNDUP FOR IOWA
NATIONAL WEATHER SERVICE DES MOINES IA
1100 PM CST MON JAN 15 2018

NOTE: "FAIR" INDICATES FEW OR NO CLOUDS BELOW 12,000 FEET WITH NO
SIGNIFICANT WEATHER AND/OR OBSTRUCTIONS TO VISIBILITY.

* - THESE STATIONS ARE NOT NWS STATIONS...THUS NOT UNDER NWS
QUALITY CONTROL.  THEY ALSO DO NOT REPORT WEATHER SUCH
AS PRECIPITATION OR FOG.

IAZ001>003-012>014-020>022-031>034-043>046-160600-
   NORTHWEST IOWA

CITY           SKY/WX    TMP DP  RH WIND       PRES   REMARKS
CARROLL *      MOCLDY    -6 -13  71 NW17      30.63R WCI -28
CHEROKEE *     CLEAR     -6 -12  76 N12       30.66R WCI -25
DENISON *      PTCLDY    -6 -11  77 NW13      30.66S WCI -25
LE MARS *      CLOUDY    -4 -11  71 NW13G20   30.69R WCI -23
ORANGE CITY *  CLOUDY    -4  -9  77 N16G24    30.64R WCI -25
SHELDON *      CLOUDY    -6 -11  77 N18       30.63R WCI -29
SIOUX CITY     PTCLDY    -3 -10  72 NW20      30.71R WCI -26
SPENCER        CLOUDY    -8 -15  71 NW15      30.63R WCI -30
STORM LAKE *   MOCLDY    -8 -13  77 NW16      30.60S WCI -30
$$

IAZ055>058-069>071-079>083-090>094-160600-
   SOUTHWEST IOWA

CITY           SKY/WX    TMP DP  RH WIND       PRES   REMARKS
ATLANTIC *     MOCLDY    -4 -11  71 NW14G22   30.66R WCI -24
AUDUBON *      CLEAR     -6 -11  77 NW9G20    30.62S WCI -22
CLARINDA *     PTCLDY    -2  -9  71 N16       30.71S WCI -23
COUNCIL BLFS * CLEAR     -4  -8  84 NW14G22   30.67R WCI -24
CRESTON *      CLEAR     -4 -11  71 NW18      30.62R WCI -26
HARLAN  *      CLEAR     -6 -11  77 NW16      30.69R WCI -28
LAMONI         CLEAR     -4 -12  68 NW15      30.61S WCI -25
RED OAK *      PTCLDY    -2  -9  71 NW13      30.70R WCI -21
SHENANDOAH *   PTCLDY    -2  -9  71 NW10      30.72S WCI -19
$$

IAZ047>049-059>061-072>074-084-160600-
   CENTRAL IOWA

CITY           SKY/WX    TMP DP  RH WIND       PRES   REMARKS
AMES           MOCLDY    -7 -13  75 NW16      30.61R WCI -29
ANKENY *       CLOUDY    -6 -13  71 NW10      30.64R WCI -23
BOONE *        LGT SNOW  -8 -15  71 NW14G25   30.58R WCI -28
CHARITON *     MOCLDY    -4 -11  71 NW17      30.59F WCI -26
DES MOINES     PTCLDY    -4 -13  65 NW18      30.61R WCI -26
GRINNELL*      CLEAR     -5 -11  78 NW18      30.55S WCI -28
KNOXVILLE *    CLOUDY    -4 -15  59 NW10      30.58R WCI -21
MARSHALLTOWN   PTCLDY    -7 -13  75 NW16      30.56R WCI -29
NEWTON *       CLOUDY    -6 -13  71 NW13G23   30.58R WCI -25
PELLA *        CLEAR     -4 -12  68 NW13G22   30.61R WCI -23
PERRY *          N/A     -5 -13  69 NW14      30.63R WCI -25
$$

IAZ004>006-015-016-023>025-035-036-160600-
   NORTH CENTRAL IOWA

CITY           SKY/WX    TMP DP  RH WIND       PRES   REMARKS
ALGONA *       CLOUDY    -8 N/A N/A NW12G22   30.58R WCI -27
CLARION *      CLOUDY    -8 -15  71 NW18G28   30.58R WCI -31
ESTHERVILLE    CLOUDY   -11 -16  78 NW20      30.60R WCI -36
FORT DODGE *   FLURRIES  -9 -15  75 NW9G16    30.61R WCI -26
MASON CITY     CLOUDY    -8 -14  74 NW21      30.54R WCI -33
FOREST CITY *    N/A     -6 -11  77 NW12G21   30.54S HAZE    WCI -24
WEBSTER CITY * CLOUDY    -8 -17  65 NW24G31   30.57S WCI -34
IOWA FALLS *     N/A     -7 -13  74 NW21      30.55R WCI -31
$$

IAZ007>011-017>019-026>030-037>042-050>054-066-160600-
   NORTHEAST IOWA

CITY           SKY/WX    TMP DP  RH WIND       PRES   REMARKS
CEDAR RAPIDS     N/A     -3 -10  72 NW18      30.49R WCI -25
CHARLES CITY * CLOUDY    -4 -11  71 NW16      30.50R WCI -25
CLINTON *      FLURRIES   1  -3  83 W17       30.44R WCI -19
DECORAH *      MOCLDY     1  -4  78 NW12      30.43R WCI -15
DUBUQUE        MOCLDY     1  -5  75 NW10      30.40R WCI -15
MONTICELLO *   CLOUDY     0  -6  78 W8G16     30.46R WCI -15
OELWEIN *      CLOUDY    -2  -6  84 NW18      30.47R WCI -24
WATERLOO       MOCLDY    -5 -11  75 NW15      30.52R WCI -26
$$

IAZ064-065-067-068-078-160600-
   EAST CENTRAL IOWA

CITY           SKY/WX    TMP DP  RH WIND       PRES   REMARKS
DAVENPORT        N/A    N/A N/A N/A W13       30.48R
IOWA CITY        N/A      0 -10  63 NW15G23   30.54R WCI -19
MT. PLEASANT * CLEAR     -2  -9  71 W14G20    30.56R WCI -21
MUSCATINE *    CLOUDY     0  -8  71 W13       30.55R WCI -18
QUAD CITIES    MOCLDY     1  -6  72 W14       30.49R WCI -17
$$

IAZ062-063-075>077-085>089-095>099-160600-
   SOUTHEAST IOWA

CITY           SKY/WX    TMP DP  RH WIND       PRES   REMARKS
BURLINGTON     CLEAR     -2 -11  65 W12       30.54R WCI -20
FAIRFIELD *    PTCLDY    -2 -13  60 W15       30.56R WCI -22
FORT MADISON * CLEAR     -2  -9  71 W16       30.55S WCI -23
KEOKUK *       CLEAR      0  -9  65 W12       30.58R WCI -18
OSKALOOSA *      N/A     -4 -11  72 NW21      30.59R WCI -28
OTTUMWA        CLEAR     -3 -12  65 NW17      30.58R WCI -24
WASHINGTON *   MOCLDY    -2  -9  71 W21       30.55S WCI -25
$$

ABBREVIATIONS USED IN REMARKS
   TC - TEMPERATURES IN CELSIUS
  WCI - WIND CHILL INDEX
   HX - HEAT INDEX
  VSB - VISIBILITY
$$





USA.gov is the U.S. government's official web portal to all federal, state and local government web resources and services.